• MPC Preparation (Info)

  • MPEC 2006-O41 : 2006 OC7

    The following Minor Planet Electronic Circular may be linked-to from your own Web pages, but must not otherwise be redistributed electronically.

    A form allowing access to any MPEC is at the bottom of this page.


    Read MPEC 2006-O40 Read MPEC 2006-O42


    M.P.E.C. 2006-O41                                Issued 2006 July 25, 10:04 UT
    
         The Minor Planet Electronic Circulars contain information on unusual
             minor planets and routine data on comets.  They are published
       on behalf of Commission 20 of the International Astronomical Union by the
              Minor Planet Center, Smithsonian Astrophysical Observatory,
                              Cambridge, MA 02138, U.S.A.
    
                      Supported in part by the Brinson Foundation
                      Supported in part by the TABASGO Foundation
                 Prepared using the Tamkin Foundation Computer Network
    
                                  MPC@CFA.HARVARD.EDU
              URL http://cfa-www.harvard.edu/iau/mpc.html  ISSN 1523-6714
    
                                       2006 OC7
    
    Observations:
         K06O07C* C2006 07 24.22567 19 19 12.73 -15 23 31.9          17.2   EO041704
         K06O07C  C2006 07 24.23679 19 19 21.03 -15 20 38.8          17.6   EO041704
         K06O07C  C2006 07 24.24785 19 19 29.15 -15 17 46.2          17.7   EO041704
         K06O07C  C2006 07 24.25896 19 19 37.35 -15 14 53.6          17.6   EO041704
         K06O07C  C2006 07 24.27002 19 19 45.56 -15 12 01.5          17.7   EO041704
         K06O07C  C2006 07 25.02030 19 29 10.22 -12 05 00.3                 EO041J95
         K06O07C  C2006 07 25.02112 19 29 10.78 -12 04 48.6                 EO041J95
         K06O07C  C2006 07 25.02203 19 29 11.42 -12 04 35.1                 EO041J95
         K06O07C  C2006 07 25.02278 19 29 11.87 -12 04 25.0          17.4 R EO041J95
         K06O07C  C2006 07 25.04655 19 29 26.60 -11 58 34.0          17.4 V EO041151
         K06O07C  C2006 07 25.04690 19 29 26.85 -11 58 28.7          17.4 V EO041151
         K06O07C  C2006 07 25.04726 19 29 27.15 -11 58 23.1          16.8 V EO041151
         K06O07C  C2006 07 25.04761 19 29 27.32 -11 58 18.5          17.5 V EO041151
         K06O07C  C2006 07 25.04797 19 29 27.65 -11 58 15.2          17.3 V EO041151
         K06O07C  C2006 07 25.04868 19 29 27.97 -11 58 02.7          17.3 V EO041151
         K06O07C  C2006 07 25.06275 19 29 44.32 -11 52 07.5          16.9 R EO041I77
         K06O07C  C2006 07 25.06427 19 29 45.31 -11 51 45.9          17.3 R EO041I77
         K06O07C  C2006 07 25.06478 19 29 45.67 -11 51 38.8          17.2 R EO041I77
         K06O07C  C2006 07 25.19357 19 31 13.71 -11 23 30.9          17.4 R EO041932
         K06O07C  C2006 07 25.19522 19 31 14.80 -11 23 07.5          17.5 R EO041932
         K06O07C  C2006 07 25.19807 19 31 16.64 -11 22 27.1          17.3 R EO041932
         K06O07C  C2006 07 25.20529 19 31 24.49 -11 20 40.5          17.6 R EO041734
         K06O07C  C2006 07 25.20778 19 31 26.10 -11 20 05.4          17.4 R EO041734
         K06O07C  C2006 07 25.21275 19 31 29.31 -11 18 55.4          17.5 R EO041734
         K06O07C  C2006 07 25.21523 19 31 30.92 -11 18 20.3          17.6 R EO041734
         K06O07C  C2006 07 25.36284 19 33 07.02 -10 43 38.2          16.2 V EO041G96
         K06O07C  C2006 07 25.36337 19 33 07.34 -10 43 30.5                 EO041G96
    
    Observer details:
    151 Eschenberg Observatory, Winterthur.  Observer M. Griesser.  0.40-m f/5.9
        Hypergraph + CCD.
    704 Lincoln Laboratory ETS, New Mexico.  Observers M. Bezpalko, L. Manguso,
        D. Torres, R. Kracke, H. Love, G. Spitz, J. Kistler.  Measurers J. Stuart,
        J. Kommers.  1.0-m f/2.15 reflector + CCD.
    734 Farpoint Observatory.  Observer D. Tibbets.  Measurer G. Hug.  0.7-m
        reflector + CCD.
    932 John J. McCarthy Obs., New Milford.  Observers M. Robson, J. Reynolds.
        Measurer M. Robson.  0.4-m f/6.5 Schmidt-Cassegrain + CCD.
    G96 Mt. Lemmon Survey.  Observer A. R. Gibbs.  Measurers E. C. Beshore,
        E. J. Christensen, G. J. Garradd, A. R. Gibbs, A. D. Grauer, R. E. Hill,
        R. A. Kowalski, S. M. Larson, R. H. McNaught.  1.5-m reflector + CCD.
    I77 CEAMIG-REA Observatory, Belo Horizonte.  Observers C. Jacques, E. Pimentel.
        Measurer C. Jacques.  0.30-m f/3.0 Schmidt-Cassegrain + CCD.
    J95 Great Shefford.  Observer P. Birtwhistle.  0.40-m f/6.0 Schmidt-Cassegrain
        + CCD.
    
    Orbital elements:
    2006 OC7                                                 Earth MOID = 0.0404 AU
    Epoch 2006 Sept. 22.0 TT = JDT 2454000.5                MPC
    M  24.14792              (2000.0)            P               Q
    n   0.30333840     Peri.  339.40806     +0.14818409     +0.97469191
    a   2.1937365      Node   298.78507     -0.87853869     +0.05202350
    e   0.5258773      Incl.   11.01013     -0.45410489     +0.21741491
    P   3.25           H   22.8           G   0.15           U   7
    Residuals in seconds of arc
    060724 704  0.3-  0.1-    060725 151  0.2+  0.2-    060725 932  0.0   0.3+
    060724 704  0.5+  0.1-    060725 151  0.4+  0.0     060725 932  0.3+  0.3+
    060724 704  0.4-  0.4+    060725 151  1.2+  0.4+    060725 932  0.1+  0.3+
    060724 704  0.4-  0.0     060725 151  0.2+  0.0     060725 734  0.2-  0.1+
    060724 704  0.4+  0.0     060725 151  1.5+  2.0-    060725 734  0.1-  0.0
    060725 J95  0.1-  0.1+    060725 151  0.9-  0.3+    060725 734  0.1-  0.0
    060725 J95  0.0   0.1-    060725 I77  0.5-  0.5+    060725 734  0.0   0.1+
    060725 J95  0.4+  0.3+    060725 I77  0.5-  0.3+    060725 G96  0.1-  0.2-
    060725 J95  0.5-  0.5-    060725 I77  0.0   0.1+    060725 G96  0.4-  0.1+
    
    Ephemeris:
    2006 OC7                 a,e,i = 2.19, 0.53, 11                  q = 1.0401
    Date    TT    R. A. (2000) Decl.     Delta      r     Elong.  Phase     V
    2006 07 24    19 16.11   -16 21.0    0.0527   1.067   166.1    13.2    17.3
    2006 08 03    20 32.98   +09 39.3    0.0955   1.100   152.3    25.3    19.1
    2006 08 13    21 00.30   +17 05.7    0.152    1.144   147.3    28.6    20.3
    2006 08 23    21 14.17   +19 05.4    0.215    1.197   146.7    27.7    21.1
    2006 09 02    21 23.91   +18 57.8    0.284    1.256   146.6    26.3    21.8
    
    Timothy B. Spahr             (C) Copyright 2006 MPC           M.P.E.C. 2006-O41
    

    Read MPEC 2006-O40 Read MPEC 2006-O42


    MPEC number:

    Enter an MPEC number in one of the following forms:

    • 1997-B01 (the full form)
    • J97B01 (the packed version of the full form)
    • B01 (the abbreviated form)